This demonstration page uses our WeatherBlox Daily Observations layout. Learn more.

39.92423, -83.80882

Hourly Observations for September 25, 2018

Temp ( °F °C ) Dew Point ( °F °C ) Humidity (%) Winds ( mph kmh ) Pressure ( in mb ) Visibility ( mi km ) Precip ( " mm )
12:56 am 00:56 Cloudy 68 20 68 20 100 100 S 12 19 30.06 1018 10 16.0934 0 0.0254
1:47 am 01:47 Cloudy 68 20 68 20 100 100 S 6 9 30.03 1017 10 16.0934 0 0
1:56 am 01:56 Cloudy 68 20 68 20 100 100 S 7 11 30.05 1018 10 16.0934 0 0
2:08 am 02:08 Cloudy with Light Rain 68 20 68 20 100 100 S 7 11 30.03 1017 10 16.0934 0 0.0254
2:32 am 02:32 Cloudy 68 20 68 20 100 100 S 7 11 30.03 1017 10 16.0934 0 0.0254
2:56 am 02:56 Cloudy 68 20 68 20 100 100 S 7 11 30.05 1018 10 16.0934 0 0.0254
3:56 am 03:56 Cloudy 68 20 68 20 100 100 S 8 13 30.04 1017 10 16.0934 0 0
4:20 am 04:20 Cloudy 68 20 68 20 100 100 S 8 13 30.03 1017 10 16.0934 0 0
4:56 am 04:56 Cloudy 68 20 68 20 100 100 S 6 9 30.04 1017 10 16.0934 0 0
5:56 am 05:56 Cloudy 69 20.6 68 20 96 96 SSW 7 11 30.04 1017 10 16.0934 0 0
6:56 am 06:56 Cloudy 69 20.6 68 20 96 96 SSW 8 13 30.04 1017 10 16.0934 0 0
7:56 am 07:56 Cloudy with Light Rain 69 20.6 68 20 96 96 S 9 15 30.05 1018 9 14.48406 0 0.0254
8:56 am 08:56 Cloudy 69 20.6 69 20.6 100 100 SSW 10 17 30.06 1018 10 16.0934 0.02 0.508
9:56 am 09:56 Cloudy with Light Rain 69 20.6 69 20.6 100 100 SSW 10 17 30.05 1018 4 6.43736 0.01 0.254
10:06 am 10:06 Cloudy with Light Rain 70 21 70 21 100 100 SSW 12 19 30.03 1017 6 9.65604 0 0.0254
10:36 am 10:36 Cloudy 70 21 70 21 100 100 SSW 8 13 30.03 1017 10 16.0934 0 0.0254
10:56 am 10:56 Cloudy 71 21.7 70 21.1 96 96 SSW 10 17 30.06 1018 10 16.0934 0 0.0254
11:56 am 11:56 Cloudy 71 21.7 70 21.1 96 96 SW 9 15 30.05 1018 10 16.0934 0 0
12:56 pm 12:56 Cloudy 72 22.2 71 21.7 97 97 SSW 7 11 30.05 1018 10 16.0934 0 0
1:48 pm 13:48 Cloudy with Light Rain 72 22 72 22 100 100 SSW 8 13 30.03 1017 2.5 4.02335 0 0.0254
1:56 pm 13:56 Cloudy with Light Rain 71 21.7 71 21.7 100 100 SSW 9 15 30.05 1018 3 4.82802 0 0.0254
2:27 pm 14:27 Cloudy 72 22 72 22 100 100 SSW 7 11 30.03 1017 10 16.0934 0 0.0254
2:56 pm 14:56 Cloudy 72 22.2 71 21.7 97 97 S 8 13 29.98 1015 10 16.0934 0 0.0254
3:25 pm 15:25 Mostly Cloudy 73 23 72 22 94 94 SSE 10 17 29.94 1014 9 14.48406 0 0.0254
3:38 pm 15:38 Mostly Cloudy 73 23 72 22 94 94 SSE 12 19 29.91 1013 10 16.0934 0 0.0254
3:56 pm 15:56 Cloudy 74 23.3 71 21.7 91 91 SW 9 15 29.98 1015 10 16.0934 0 0.0254
4:56 pm 16:56 Cloudy 76 24.4 71 21.7 85 85 SSW 10 17 29.95 1014 10 16.0934 0 0
5:14 pm 17:14 Mostly Cloudy 79 26 72 22 79 79 S 12 19 29.88 1012 10 16.0934 0 0
5:25 pm 17:25 Mostly Cloudy 77 25 72 22 83 83 SSW 13 20 29.88 1012 10 16.0934 0 0
5:56 pm 17:56 Cloudy 76 24.4 71 21.7 85 85 SSW 8 13 29.93 1014 10 16.0934 0 0
6:56 pm 18:56 Cloudy 76 24.4 71 21.7 85 85 S 10 17 29.95 1014 10 16.0934 0 0
7:56 pm 19:56 Cloudy 75 23.9 71 21.7 88 88 S 12 19 29.95 1014 10 16.0934 0 0
8:27 pm 20:27 Cloudy 73 23 72 22 94 94 S 6 9 29.94 1014 10 16.0934 0 0
8:56 pm 20:56 Mostly Cloudy 74 23.3 71 21.7 91 91 S 7 11 29.95 1014 10 16.0934 0 0
9:32 pm 21:32 Partly Cloudy 73 23 72 22 94 94 S 7 11 29.94 1014 10 16.0934 0 0
9:56 pm 21:56 Clear 72 22.2 70 21.1 94 94 SSW 8 13 29.96 1015 10 16.0934 0 0
10:56 pm 22:56 Cloudy 73 22.8 70 21.1 90 90 SSW 8 13 29.97 1015 10 16.0934 0 0
11:16 pm 23:16 Cloudy 72 22 70 21 94 94 SSW 6 9 29.94 1014 10 16.0934 0 0
11:27 pm 23:27 Cloudy 73 23 70 21 89 89 SSW 9 15 29.94 1014 10 16.0934 0 0
11:36 pm 23:36 Cloudy with Light Rain 72 22 72 22 100 100 SSW 9 15 29.94 1014 8 12.87472 0 0.0254
11:43 pm 23:43 Cloudy with Light Rain 72 22 72 22 100 100 SSW 9 15 29.94 1014 6 9.65604 0.01 0.254
11:56 pm 23:56 Cloudy with Light Rain 71 21.7 71 21.7 100 100 SSW 10 17 29.95 1014 9 14.48406 0.01 0.254

Powered by AerisWeather